Temp
5 5 5 5 6 6 7 7 7 6 7 7 7 7 7 7 7 7 6 6 5 6 6 6 5 5 5 4 3 4 5 4 4 5 5 5 6 7 7 7 7 7 7
5 5 5 6 6 6 6 6 7 7 6 6 6 6 6 6 6 6 6 6 6 4 4 6 6 4 4 4 4 4 4 4 3 3 4 5 5 6 6 6 6 6 6
4 5 5 5 6 6 6 6 6 6 6 7 7 7 6 7 7 8 7 7 6 6 5 5 5 5 4 5 4 4 3 3 2 3 4 4 5 4 5 5 5 6 6
3 4 5 5 5 6 6 6 6 6 6 6 7 7 7 7 6 6 6 6 6 6 5 5 5 5 5 5 5 3 3 3 3 2 2 3 4 4 4 5 5 5 5
2 3 3 4 5 5 6 6 6 6 6 6 6 7 7 6 6 6 5 5 5 5 5 5 5 5 4 4 5 4 2 3 2 2 2 3 3 3 3 4 3 3 4
2 2 3 3 4 4 5 5 6 6 6 6 6 6 6 6 6 6 5 5 5 5 4 5 5 5 5 4 4 4 3 3 3 2 2 2 2 3 2 2 3 3 3
1 1 2 2 3 3 4 4 5 5 5 5 6 6 6 6 6 5 5 5 5 4 4 4 4 5 4 4 4 4 4 3 3 3 3 2 3 3 2 1 2 2 3
1 1 1 2 2 3 3 3 4 4 5 5 5 6 6 6 6 5 5 5 4 4 4 4 4 4 3 3 3 3 3 3 2 3 3 2 2 2 2 0 1 1 2
-0 0 1 1 1 2 2 3 4 4 4 5 5 5 5 5 6 6 6 5 4 4 4 3 3 4 3 3 3 3 3 2 2 2 2 2 2 2 2 1 1 1 2
-2 -1 -1 0 1 1 2 2 3 3 4 4 4 5 5 5 5 5 5 5 4 3 3 3 3 3 3 3 2 2 2 2 2 2 2 2 2 1 1 1 1 1 1
-4 -3 -2 -1 -1 0 1 2 2 3 3 3 4 4 4 4 4 4 4 4 3 3 3 2 2 3 2 2 2 2 2 2 2 1 1 1 1 0 -0 -0 -0 -0 -0
-6 -5 -4 -3 -1 -0 0 1 1 2 2 2 2 2 2 2 3 3 3 3 2 2 2 2 2 2 2 2 1 2 2 2 1 1 1 1 0 -0 -0 -1 -1 -1 -1
-8 -7 -5 -4 -3 -2 -1 -0 -0 -0 -1 -2 -0 0 1 1 2 1 2 1 1 1 2 1 1 1 1 1 1 1 1 1 1 1 1 1 0 -0 -0 -0 -0 -1 -1
-9 -8 -7 -6 -5 -4 -3 -3 -3 -4 -6 -5 -4 -3 -1 -0 0 1 1 1 0 -1 0 0 0 0 0 0 0 0 1 1 1 0 0 1 0 0 -0 -1 -0 -1 -1
-10 -9 -9 -8 -6 -5 -5 -5 -5 -5 -5 -5 -4 -3 -3 -3 -3 -2 -2 -1 -0 -0 -0 -1 -0 -0 0 0 0 0 0 0 0 0 0 0 -0 -1 -1 -0 -0 -1 -1
-11 -10 -10 -9 -8 -7 -6 -6 -6 -6 -6 -4 -4 -4 -3 -2 -3 -2 -2 -3 -2 -2 -2 -1 -1 -1 0 0 0 0 -0 -0 0 0 0 1 -1 -2 -1 -2 -1 -1 -1
-12 -11 -11 -10 -9 -8 -7 -6 -6 -6 -6 -4 -4 -3 -4 -3 -3 -3 -4 -3 -3 -3 -2 -2 -1 -0 0 0 0 0 0 1 1 1 1 0 -1 -2 -2 -2 -2 -2 -1
-12 -12 -11 -10 -10 -9 -8 -7 -7 -6 -6 -5 -4 -4 -4 -3 -3 -4 -3 -3 -4 -3 -3 -3 -2 -1 -1 -1 -1 0 1 1 0 0 -0 -1 -2 -2 -2 -2 -2 -1 -1
-13 -12 -11 -11 -10 -10 -9 -8 -8 -7 -7 -6 -5 -5 -5 -5 -4 -4 -3 -5 -4 -4 -2 -3 -3 -3 -2 -2 -2 -1 -0 0 -1 -2 -2 -3 -3 -3 -3 -2 -2 -2 -2
-15 -13 -13 -12 -11 -10 -9 -9 -8 -7 -7 -7 -6 -5 -5 -4 -4 -4 -4 -3 -3 -3 -3 -3 -3 -3 -3 -3 -3 -2 -1 -2 -3 -2 -2 -4 -3 -3 -3 -2 -2 -2 -2
-16 -15 -14 -13 -11 -11 -10 -9 -9 -8 -8 -7 -7 -7 -6 -5 -4 -4 -4 -4 -4 -3 -4 -3 -3 -2 -2 -2 -2 -2 -2 -2 -3 -2 -2 -3 -3 -3 -2 -2 -2 -2 -3
-16 -16 -15 -15 -14 -12 -11 -10 -9 -9 -8 -8 -7 -7 -7 -6 -5 -5 -4 -4 -4 -4 -3 -3 -3 -3 -2 -3 -3 -3 -3 -3 -3 -3 -3 -2 -3 -3 -3 -2 -2 -2 -3
-17 -16 -15 -15 -14 -13 -12 -11 -10 -10 -9 -8 -7 -7 -7 -6 -6 -7 -5 -5 -5 -4 -3 -4 -4 -3 -3 -3 -3 -3 -3 -3 -2 -3 -3 -3 -3 -3 -2 -3 -3 -3 -3
-17 -17 -17 -16 -15 -14 -13 -12 -11 -10 -9 -9 -8 -8 -7 -7 -6 -6 -6 -6 -5 -5 -5 -4 -4 -4 -4 -3 -2 -3 -3 -3 -3 -3 -3 -3 -3 -3 -3 -3 -3 -2 -2
-17 -17 -17 -16 -16 -15 -14 -13 -12 -11 -10 -9 -9 -9 -8 -8 -7 -7 -6 -6 -6 -5 -4 -5 -5 -3 -3 -4 -3 -3 -4 -3 -3 -3 -3 -3 -3 -3 -3 -3 -2 -2 -2
-17 -17 -17 -16 -16 -15 -15 -14 -13 -12 -11 -10 -9 -9 -9 -8 -8 -7 -7 -7 -7 -6 -6 -5 -4 -3 -2 -3 -3 -4 -4 -4 -3 -2 -3 -3 -4 -3 -3 -3 -2 -2 -2
Height
3090 3094 3099 3105 3110 3114 3119 3124 3127 3131 3134 3138 3142 3145 3149 3152 3155 3157 3160 3162 3164 3167 3170 3173 3175 3177 3180 3182 3183 3185 3187 3189 3190 3190 3191 3193 3194 3195 3197 3198 3199 3200 3201
3084 3089 3093 3099 3104 3109 3113 3118 3123 3126 3130 3134 3138 3140 3143 3147 3150 3153 3156 3157 3160 3162 3165 3167 3170 3173 3175 3177 3179 3181 3183 3186 3187 3188 3188 3190 3193 3193 3194 3195 3196 3197 3198
3076 3082 3087 3092 3097 3103 3108 3112 3116 3121 3126 3128 3131 3135 3137 3141 3144 3147 3150 3152 3155 3158 3160 3162 3164 3168 3171 3172 3174 3176 3178 3181 3182 3184 3184 3185 3188 3189 3190 3191 3192 3194 3195
3069 3075 3080 3086 3090 3095 3100 3105 3110 3114 3118 3122 3125 3129 3133 3136 3141 3143 3145 3148 3150 3153 3156 3157 3159 3162 3165 3167 3169 3171 3172 3174 3176 3178 3179 3181 3183 3184 3186 3187 3188 3189 3191
3062 3068 3074 3078 3083 3087 3092 3097 3102 3106 3110 3114 3119 3123 3127 3131 3134 3136 3139 3141 3144 3146 3149 3152 3154 3155 3158 3161 3163 3165 3167 3168 3170 3172 3174 3175 3177 3178 3180 3182 3183 3184 3185
3054 3060 3065 3070 3075 3080 3085 3090 3094 3099 3102 3107 3111 3116 3121 3125 3127 3130 3132 3134 3137 3139 3142 3146 3148 3149 3151 3153 3156 3159 3160 3161 3163 3166 3167 3169 3171 3174 3175 3177 3178 3178 3180
3045 3052 3059 3064 3069 3074 3078 3083 3087 3091 3095 3099 3103 3108 3113 3117 3119 3122 3124 3126 3129 3132 3136 3139 3141 3143 3145 3147 3149 3151 3153 3155 3157 3160 3162 3163 3164 3166 3168 3170 3171 3174 3174
3040 3046 3052 3057 3062 3067 3071 3076 3080 3084 3087 3091 3095 3099 3103 3107 3110 3113 3115 3117 3120 3124 3127 3130 3133 3135 3137 3139 3141 3143 3146 3148 3149 3152 3154 3156 3157 3159 3160 3162 3164 3165 3167
3031 3038 3044 3049 3054 3059 3063 3068 3072 3076 3079 3083 3086 3090 3093 3096 3100 3102 3105 3107 3111 3115 3119 3122 3124 3127 3129 3131 3133 3135 3138 3140 3142 3144 3146 3148 3151 3152 3153 3154 3156 3158 3159
3023 3030 3035 3040 3045 3050 3054 3058 3062 3066 3070 3073 3077 3080 3083 3085 3089 3092 3094 3097 3101 3106 3109 3113 3116 3118 3121 3123 3125 3127 3130 3132 3134 3136 3139 3141 3144 3145 3146 3148 3150 3151 3153
3016 3022 3027 3032 3038 3042 3046 3050 3053 3057 3060 3063 3065 3069 3071 3074 3077 3081 3084 3087 3091 3096 3100 3104 3107 3110 3113 3115 3117 3119 3122 3124 3127 3129 3131 3134 3137 3138 3139 3142 3143 3145 3147
3009 3015 3020 3025 3030 3034 3038 3041 3045 3048 3051 3053 3056 3059 3062 3065 3068 3071 3074 3077 3081 3086 3090 3095 3098 3102 3105 3107 3109 3111 3114 3116 3119 3122 3124 3127 3129 3130 3133 3135 3136 3138 3141
3003 3008 3013 3017 3022 3026 3030 3033 3036 3039 3042 3045 3048 3051 3054 3057 3060 3063 3065 3069 3073 3078 3081 3086 3090 3093 3096 3099 3101 3103 3106 3108 3111 3114 3115 3119 3121 3122 3124 3126 3129 3130 3133
2998 3002 3006 3010 3014 3017 3022 3025 3028 3032 3036 3039 3042 3045 3047 3050 3051 3055 3058 3061 3065 3070 3073 3079 3081 3085 3088 3090 3093 3095 3097 3100 3102 3104 3106 3108 3110 3113 3115 3116 3119 3122 3123
2993 2997 3000 3004 3007 3011 3015 3019 3022 3026 3030 3033 3036 3038 3042 3045 3047 3049 3052 3055 3058 3062 3067 3070 3073 3076 3079 3082 3085 3087 3089 3091 3093 3095 3096 3097 3098 3099 3102 3106 3109 3111 3113
2987 2991 2995 2998 3002 3005 3009 3013 3016 3019 3022 3025 3029 3031 3036 3039 3042 3044 3047 3050 3052 3055 3058 3061 3064 3067 3069 3073 3076 3078 3080 3082 3083 3084 3086 3086 3089 3090 3094 3096 3098 3102 3104
2983 2986 2989 2993 2996 3000 3003 3006 3009 3012 3016 3018 3020 3023 3026 3030 3033 3038 3040 3043 3045 3048 3050 3053 3055 3057 3060 3064 3067 3069 3070 3072 3073 3074 3075 3076 3079 3081 3083 3086 3089 3092 3095
2980 2982 2985 2987 2990 2993 2996 2999 3002 3006 3009 3011 3014 3016 3018 3022 3027 3029 3032 3035 3038 3040 3043 3045 3047 3048 3053 3056 3058 3060 3060 3062 3064 3065 3067 3067 3070 3073 3076 3079 3081 3084 3086
2977 2978 2980 2983 2985 2987 2989 2992 2995 2998 3002 3004 3005 3007 3011 3015 3018 3021 3025 3027 3029 3033 3036 3037 3041 3043 3046 3048 3050 3051 3051 3053 3056 3058 3059 3061 3064 3066 3069 3072 3073 3077 3080
2973 2975 2976 2978 2979 2981 2984 2986 2988 2991 2994 2997 2999 3000 3004 3008 3010 3013 3014 3018 3022 3025 3027 3031 3033 3036 3039 3040 3042 3043 3043 3045 3048 3050 3052 3054 3057 3059 3061 3063 3066 3070 3074
2970 2972 2972 2972 2973 2975 2977 2980 2981 2984 2987 2990 2992 2995 2996 2999 3000 3004 3008 3011 3013 3016 3019 3021 3025 3029 3031 3034 3034 3036 3037 3039 3041 3042 3045 3048 3051 3053 3055 3057 3059 3064 3067
2967 2969 2969 2967 2968 2970 2971 2973 2974 2976 2979 2982 2985 2988 2990 2991 2994 2996 2999 3000 3005 3008 3012 3015 3016 3020 3022 3025 3027 3029 3031 3033 3033 3035 3038 3041 3044 3047 3048 3050 3054 3056 3059
2964 2963 2964 2964 2964 2966 2966 2966 2967 2969 2970 2973 2976 2979 2982 2984 2987 2988 2990 2993 2994 2998 3003 3006 3009 3011 3013 3016 3019 3020 3023 3025 3026 3028 3030 3032 3035 3038 3039 3043 3045 3048 3052
2960 2960 2960 2961 2961 2961 2960 2961 2961 2961 2963 2964 2967 2970 2972 2975 2978 2981 2985 2986 2988 2991 2994 2997 3001 3003 3006 3009 3011 3013 3015 3017 3018 3020 3022 3024 3025 3028 3031 3034 3037 3040 3044
2956 2956 2956 2956 2955 2953 2953 2954 2954 2955 2955 2957 2959 2962 2964 2966 2969 2972 2976 2979 2981 2984 2987 2990 2992 2995 2997 3001 3002 3004 3006 3009 3012 3014 3014 3015 3017 3018 3022 3026 3029 3033 3036
2951 2952 2951 2950 2948 2948 2948 2949 2948 2948 2948 2949 2951 2953 2956 2957 2960 2963 2967 2970 2974 2976 2979 2982 2982 2985 2987 2990 2993 2995 2998 3001 3003 3003 3004 3006 3008 3009 3013 3017 3021 3024 3028
Wind_Speed
38 38 39 37 35 33 31 31 30 27 27 25 23 22 21 22 20 20 21 20 20 19 19 21 23 21 18 18 15 16 18 13 19 18 16 14 13 13 11 12 13 13 13
42 40 39 38 38 37 33 31 30 30 28 26 25 25 24 22 21 21 22 23 24 25 24 23 22 22 21 22 22 24 25 23 19 17 18 19 17 17 15 13 12 13 14
46 45 43 41 40 39 38 37 34 32 31 31 30 28 28 26 24 22 22 24 26 26 27 26 24 23 27 26 26 26 26 23 23 23 24 24 21 17 17 17 16 15 15
51 48 46 45 43 41 40 37 36 34 33 33 33 30 28 26 22 21 21 23 26 27 28 28 26 28 27 28 27 26 27 28 28 31 29 26 25 28 23 24 23 18 15
50 49 48 47 45 43 42 41 39 37 35 34 32 31 30 27 27 27 27 28 29 29 30 29 29 29 29 29 29 29 30 29 29 30 34 35 30 28 25 23 21 23 24
53 50 48 46 43 40 39 37 37 37 36 36 35 33 31 30 30 30 31 31 31 31 30 30 31 31 32 31 31 31 32 32 32 32 31 32 34 37 35 32 28 27 27
53 51 48 46 45 44 43 41 39 39 39 38 37 36 35 35 35 35 36 36 35 33 32 30 31 32 33 34 34 34 35 34 34 33 32 30 34 31 31 34 30 35 30
50 49 47 47 45 43 41 40 39 39 40 40 40 40 40 39 39 39 41 41 40 37 35 33 32 32 33 34 35 36 35 36 36 35 34 31 30 30 31 30 33 35 35
50 50 49 47 45 44 45 44 45 44 44 44 43 43 43 43 43 43 43 43 43 41 38 36 35 34 34 34 35 36 35 35 35 35 33 32 30 29 30 31 33 34 35
44 45 45 45 43 41 41 41 42 43 44 45 45 45 46 46 46 47 47 45 43 42 40 39 37 35 35 34 35 35 34 35 34 33 33 32 30 29 30 30 30 29 28
39 38 38 37 36 35 35 33 33 34 35 37 40 43 44 45 44 44 44 43 42 43 43 40 37 36 34 34 35 35 34 34 33 32 31 29 29 29 28 27 27 27 26
33 33 33 33 34 35 34 34 35 38 40 40 39 39 38 37 37 36 37 37 38 39 41 40 38 36 35 35 35 34 34 33 32 31 32 31 31 32 32 31 32 31 31
26 28 29 30 32 33 33 33 33 32 27 25 27 28 31 31 33 33 33 34 36 36 38 37 37 36 35 35 35 35 34 34 32 32 35 35 37 39 39 39 37 38 38
25 26 28 29 31 32 31 30 31 30 28 25 23 23 24 28 28 34 33 35 35 38 35 37 35 36 35 35 36 36 35 34 34 35 37 38 40 41 40 44 40 41 42
27 27 27 27 29 29 29 29 29 29 29 24 27 27 29 25 29 27 27 30 33 35 42 40 38 37 38 37 37 37 36 37 38 39 41 42 44 40 35 38 39 40 40
27 28 28 27 26 27 27 27 28 28 29 29 27 31 32 28 25 25 27 28 33 34 37 40 39 40 39 37 37 37 38 39 40 41 42 45 34 31 32 33 38 39 39
22 23 26 27 29 29 27 27 28 29 31 30 27 36 40 38 40 33 31 29 30 32 36 37 39 40 37 33 34 36 38 40 41 42 39 35 37 37 36 37 33 32 35
18 19 21 22 24 25 28 30 30 30 33 35 37 26 27 39 40 29 30 30 33 29 31 29 30 30 29 30 32 34 36 37 35 32 30 26 28 31 27 25 35 31 35
14 17 20 21 23 23 24 26 29 30 29 35 40 36 30 34 35 34 33 33 37 29 26 30 27 28 28 29 30 31 32 31 31 32 31 27 27 22 33 31 30 37 34
13 17 18 19 20 22 24 26 25 27 29 29 31 38 37 34 33 31 32 42 37 33 40 34 32 31 28 29 31 31 29 28 27 27 29 28 24 30 32 28 35 36 33
9 14 16 19 22 22 23 27 27 27 27 29 29 30 33 40 29 32 36 32 39 38 30 32 29 28 28 29 32 30 24 23 27 25 26 30 27 25 27 30 33 31 29
7 11 13 14 17 20 24 27 27 28 29 29 29 30 30 32 39 33 31 25 37 35 40 34 27 28 30 32 30 27 23 21 26 25 26 28 30 28 28 30 30 31 29
9 10 13 14 15 18 21 23 26 28 30 31 30 30 31 31 36 31 39 33 33 30 37 38 33 33 26 31 30 31 25 25 27 24 27 30 32 33 32 32 33 30 31
10 10 10 13 14 16 18 21 24 26 28 31 32 33 31 33 33 38 34 29 32 31 34 30 36 34 35 34 28 30 36 29 28 27 28 27 31 37 38 40 40 36 32
12 13 12 13 15 16 17 18 20 23 27 31 31 33 33 33 34 36 37 36 28 34 38 40 38 38 37 34 35 32 29 30 29 27 27 29 34 35 39 40 39 36 34
15 15 15 14 15 16 18 19 20 22 24 27 31 32 34 34 35 36 39 41 37 31 30 30 32 35 34 30 36 39 32 34 31 33 35 33 34 31 35 38 36 35 33
Wind_Direction
212 211 211 210 212 214 212 207 206 212 217 219 222 224 225 228 232 235 237 239 240 238 238 235 240 242 243 238 246 256 244 254 260 263 269 271 273 278 281 280 277 272 268
215 215 215 213 211 212 216 218 219 222 220 225 227 230 233 233 234 230 233 238 240 242 245 246 242 249 233 246 251 253 258 255 250 260 267 267 272 273 278 280 282 275 269
216 217 219 221 220 218 219 221 222 224 229 228 226 228 229 232 237 241 240 240 239 242 245 251 251 251 245 249 251 254 251 239 252 249 258 261 271 266 264 273 280 280 272
215 217 219 221 224 225 225 225 227 228 228 233 232 229 231 236 241 246 248 245 244 243 245 247 248 249 246 250 253 252 252 245 250 252 253 252 265 260 264 269 270 270 271
219 222 224 226 226 225 229 230 230 231 231 229 229 231 231 234 236 236 236 237 237 238 240 243 246 248 250 250 250 250 247 254 252 253 250 250 248 250 258 267 269 269 269
218 221 224 226 228 228 223 222 224 227 229 230 231 232 233 237 241 245 246 245 242 240 239 241 244 248 250 249 250 250 252 253 254 253 257 246 253 260 261 262 265 266 268
213 217 221 226 229 229 230 231 229 229 230 231 233 237 240 242 245 248 249 247 245 242 241 241 245 249 251 252 251 250 251 253 257 259 261 256 260 256 254 250 259 253 266
216 219 223 227 230 232 233 232 232 233 234 237 241 244 245 245 245 247 250 249 246 242 238 239 242 245 249 250 251 250 250 251 254 257 259 261 254 257 258 255 252 258 260
215 219 223 228 231 235 238 238 239 241 243 244 244 245 246 247 247 248 249 249 245 240 239 239 240 243 245 247 248 249 248 250 252 256 258 257 254 252 254 253 254 258 259
217 219 224 230 235 239 240 240 241 243 244 245 246 246 248 249 248 250 250 247 242 237 237 239 240 242 244 246 247 248 249 250 252 253 254 256 255 253 253 254 254 257 264
219 221 226 231 236 238 237 236 237 238 239 240 242 243 245 246 246 246 246 243 238 233 234 236 239 240 243 245 248 250 250 250 250 251 253 253 255 253 252 251 254 259 261
217 219 222 224 227 229 233 238 245 249 250 248 243 241 240 241 240 239 239 238 233 229 231 233 235 238 242 244 246 247 247 248 250 250 252 254 253 253 252 254 255 260 266
213 215 218 221 225 230 238 243 245 246 242 237 235 231 232 233 234 233 233 232 232 229 229 231 232 237 240 243 245 246 248 248 247 249 251 252 253 254 256 255 253 258 258
215 217 220 223 227 232 235 236 242 237 232 233 232 247 242 237 236 229 229 231 226 230 234 227 235 236 239 241 244 247 246 247 251 254 256 258 260 257 254 254 251 254 254
219 220 221 224 230 230 232 235 240 242 238 236 245 241 245 244 230 219 230 228 229 230 224 238 236 238 239 242 244 244 247 249 252 258 261 262 264 268 246 245 248 252 256
225 224 224 224 224 226 229 232 235 250 247 244 239 233 219 231 227 230 223 221 231 225 229 235 239 243 243 244 244 245 248 251 255 259 260 264 243 243 241 247 242 249 247
226 228 231 231 232 233 233 237 239 246 235 232 241 234 228 226 234 226 238 239 240 238 238 241 244 245 245 245 241 246 252 255 257 259 258 252 248 244 247 246 248 245 245
219 226 229 232 235 236 236 237 239 240 237 232 226 216 217 228 227 240 232 235 241 238 244 245 248 238 237 243 248 251 251 251 250 252 253 251 226 240 241 234 240 240 232
217 221 229 233 236 237 240 241 240 241 242 242 238 238 243 244 254 256 241 240 245 231 227 242 242 236 233 238 243 252 255 252 250 251 252 238 237 245 226 230 232 240 244
236 234 235 232 234 238 241 243 243 243 244 243 243 235 233 236 233 238 242 237 245 238 235 246 238 236 234 247 255 258 257 253 256 260 237 244 242 230 228 233 233 238 237
256 249 242 238 237 237 242 243 242 244 246 245 243 245 234 228 235 233 246 243 229 232 224 234 235 232 234 240 249 258 255 247 247 254 242 237 237 241 240 232 231 231 232
263 262 259 251 245 242 241 243 242 243 245 247 247 245 244 237 231 225 223 215 234 236 242 237 228 230 232 245 247 248 244 246 251 247 240 236 233 235 238 237 233 235 235
268 264 263 258 254 251 247 244 245 245 244 244 247 245 243 243 241 249 238 232 243 227 230 240 242 233 229 222 235 234 234 243 248 235 244 236 231 225 233 236 235 236 236
286 279 272 270 267 260 252 250 247 246 245 245 245 245 244 241 241 243 245 248 240 244 249 253 231 234 242 238 232 242 237 244 258 236 245 238 233 236 237 235 229 234 233
283 283 280 275 274 271 266 260 255 250 247 246 247 249 245 243 241 240 243 241 240 241 248 254 250 250 248 238 238 246 249 238 251 241 245 241 248 247 238 237 230 234 235
279 279 280 281 279 277 273 269 263 254 249 247 245 247 248 247 243 241 239 239 235 239 240 245 247 249 248 242 232 237 242 242 243 236 240 245 245 247 232 226 228 228 229